Вернуться в каталог

SJ-23 AKM

АктивенGEO
NORAD 55180·ROCKET BODY·🇨🇳 China

Запущен Jan 8, 2023 с Wenchang Space Launch Site

Loading…

TLE

СвежийSource: Space-Track

Эпоха: Sep 14, 2026, 14:11 UTC

1 55180U 23002C   26257.59130774  .00000006  00000-0  00000-0 0  9990
2 55180   3.9743  77.3297 0001374 248.8639 322.0296  0.99354797 13299

Отслеживайте SJ-23 AKM в реальном времени с AllMySat

Download on the App Store